Back to catalog

STARLINK-5170

AliveCommunicationsVLEO
NORAD 54062·PAYLOAD·🇺🇸 United States

Launched Oct 20, 2022 from Cape Canaveral Space Force Station

Loading…

Next Passes (next 24 hours)

TLE

FreshSource: CelesTrak SupGP

Epoch: Sep 14, 2026, 14:09 UTC

1 54062C 22136M   26257.59006944 -.00034508  00000+0 -98757-3 0  2577
2 54062  53.1577 205.2303 0001284  94.2862  53.2574 15.35406953    16

Track STARLINK-5170 in real time with AllMySat

Download on the App Store